Time,TemperatureF,DewpointF,PressureIn,WindDirection,WindDirectionDegrees,WindSpeedMPH,WindSpeedGustMPH,Humidity,HourlyPrecipIn,Conditions,Clouds,dailyrainin,SoftwareType,DateUTC
2017-08-21 00:01:00,80.6,75.7,30.07,South,172,0.0,0.0,85,0.00,,---,0.00,VWS V15.00,2017-08-21 04:01:00,
2017-08-21 00:07:00,80.6,75.7,30.07,South,172,0.0,0.0,85,0.00,,---,0.00,VWS V15.00,2017-08-21 04:07:00,
2017-08-21 00:12:00,80.6,75.7,30.07,South,172,0.0,0.0,85,0.00,,---,0.00,VWS V15.00,2017-08-21 04:12:00,
2017-08-21 00:17:00,80.6,75.7,30.07,South,172,0.0,0.0,85,0.00,,---,0.00,VWS V15.00,2017-08-21 04:17:00,
2017-08-21 00:22:00,80.5,75.6,30.07,South,172,0.0,0.0,85,0.00,,---,0.00,VWS V15.00,2017-08-21 04:22:00,
2017-08-21 00:27:00,80.5,75.6,30.07,South,172,0.0,0.0,85,0.00,,---,0.00,VWS V15.00,2017-08-21 04:27:00,
2017-08-21 00:32:00,80.5,75.6,30.07,South,172,0.0,0.0,85,0.00,,---,0.00,VWS V15.00,2017-08-21 04:32:00,
2017-08-21 00:37:00,80.5,75.6,30.07,South,172,0.0,0.0,85,0.00,,---,0.00,VWS V15.00,2017-08-21 04:37:00,
2017-08-21 00:42:00,80.5,75.6,30.07,South,172,0.0,0.0,85,0.00,,---,0.00,VWS V15.00,2017-08-21 04:42:00,
2017-08-21 00:47:00,80.4,75.5,30.07,South,172,0.0,1.0,85,0.00,,---,0.00,VWS V15.00,2017-08-21 04:47:00,
2017-08-21 00:52:00,80.4,75.5,30.07,South,172,0.0,1.0,85,0.00,,---,0.00,VWS V15.00,2017-08-21 04:52:00,
2017-08-21 00:58:00,80.4,75.5,30.07,South,172,0.0,1.0,85,0.00,,---,0.00,VWS V15.00,2017-08-21 04:58:00,
2017-08-21 01:03:00,80.3,75.4,30.08,South,172,0.0,0.0,85,0.00,,---,0.00,VWS V15.00,2017-08-21 05:03:00,
2017-08-21 01:08:00,80.3,75.4,30.07,South,172,0.0,0.0,85,0.00,,---,0.00,VWS V15.00,2017-08-21 05:08:00,
2017-08-21 01:13:00,80.3,75.7,30.07,South,172,0.0,1.0,86,0.00,,---,0.00,VWS V15.00,2017-08-21 05:13:00,
2017-08-21 01:18:00,80.3,75.7,30.07,South,172,0.0,0.0,86,0.00,,---,0.00,VWS V15.00,2017-08-21 05:18:00,
2017-08-21 01:23:00,80.3,75.7,30.07,South,172,0.0,0.0,86,0.00,,---,0.00,VWS V15.00,2017-08-21 05:23:00,
2017-08-21 01:28:00,80.2,75.6,30.07,South,172,0.0,0.0,86,0.00,,---,0.00,VWS V15.00,2017-08-21 05:28:00,
2017-08-21 01:33:00,80.2,75.6,30.07,South,172,0.0,0.0,86,0.00,,---,0.00,VWS V15.00,2017-08-21 05:33:00,
2017-08-21 01:38:00,80.1,75.5,30.06,South,172,0.0,0.0,86,0.00,,---,0.00,VWS V15.00,2017-08-21 05:38:00,
2017-08-21 01:43:00,80.0,75.4,30.06,South,172,0.0,0.0,86,0.00,,---,0.00,VWS V15.00,2017-08-21 05:43:00,
2017-08-21 01:48:00,80.0,75.4,30.07,South,172,0.0,0.0,86,0.00,,---,0.00,VWS V15.00,2017-08-21 05:48:00,
2017-08-21 01:53:00,80.0,75.4,30.06,South,172,0.0,0.0,86,0.00,,---,0.00,VWS V15.00,2017-08-21 05:53:00,
2017-08-21 01:59:00,79.9,75.3,30.06,South,172,0.0,0.0,86,0.00,,---,0.00,VWS V15.00,2017-08-21 05:59:00,
2017-08-21 02:04:00,79.8,75.2,30.06,South,172,0.0,0.0,86,0.00,,---,0.00,VWS V15.00,2017-08-21 06:04:00,
2017-08-21 02:09:00,79.8,75.2,30.06,South,172,0.0,0.0,86,0.00,,---,0.00,VWS V15.00,2017-08-21 06:09:00,
2017-08-21 02:14:00,79.8,75.6,30.06,South,172,0.0,0.0,87,0.00,,---,0.00,VWS V15.00,2017-08-21 06:14:00,
2017-08-21 02:19:00,79.8,75.6,30.06,South,172,0.0,0.0,87,0.00,,---,0.00,VWS V15.00,2017-08-21 06:19:00,
2017-08-21 02:24:00,79.8,75.6,30.06,South,172,0.0,0.0,87,0.00,,---,0.00,VWS V15.00,2017-08-21 06:24:00,
2017-08-21 02:29:00,79.6,75.4,30.06,South,172,0.0,0.0,87,0.00,,---,0.00,VWS V15.00,2017-08-21 06:29:00,
2017-08-21 02:34:00,79.6,75.4,30.05,South,172,0.0,0.0,87,0.00,,---,0.00,VWS V15.00,2017-08-21 06:34:00,
2017-08-21 02:39:00,79.6,75.4,30.05,South,173,0.0,1.0,87,0.00,,---,0.00,VWS V15.00,2017-08-21 06:39:00,
2017-08-21 02:44:00,79.5,75.3,30.05,South,173,0.0,0.0,87,0.00,,---,0.00,VWS V15.00,2017-08-21 06:44:00,
2017-08-21 02:49:00,79.4,75.2,30.05,South,173,0.0,1.0,87,0.00,,---,0.00,VWS V15.00,2017-08-21 06:49:00,
2017-08-21 02:55:00,79.3,75.1,30.04,South,173,0.0,1.0,87,0.00,,---,0.00,VWS V15.00,2017-08-21 06:55:00,
2017-08-21 03:00:00,79.2,75.0,30.04,South,173,0.0,0.0,87,0.00,,---,0.00,VWS V15.00,2017-08-21 07:00:00,
2017-08-21 03:05:00,79.1,74.9,30.04,South,173,0.0,0.0,87,0.00,,---,0.00,VWS V15.00,2017-08-21 07:05:00,
2017-08-21 03:10:00,78.9,74.7,30.04,South,173,0.0,0.0,87,0.00,,---,0.00,VWS V15.00,2017-08-21 07:10:00,
2017-08-21 03:15:00,78.9,74.7,30.03,South,173,0.0,0.0,87,0.00,,---,0.00,VWS V15.00,2017-08-21 07:15:00,
2017-08-21 03:20:00,78.8,74.6,30.03,South,173,0.0,0.0,87,0.00,,---,0.00,VWS V15.00,2017-08-21 07:20:00,
2017-08-21 03:25:00,78.7,74.5,30.03,South,173,0.0,0.0,87,0.00,,---,0.00,VWS V15.00,2017-08-21 07:25:00,
2017-08-21 03:30:00,78.7,74.5,30.03,South,173,0.0,0.0,87,0.00,,---,0.00,VWS V15.00,2017-08-21 07:30:00,
2017-08-21 03:35:00,78.6,74.4,30.03,South,173,0.0,0.0,87,0.00,,---,0.00,VWS V15.00,2017-08-21 07:35:00,
2017-08-21 03:40:00,78.6,74.8,30.03,South,173,0.0,0.0,88,0.00,,---,0.00,VWS V15.00,2017-08-21 07:40:00,
2017-08-21 03:45:00,78.6,74.8,30.03,South,173,0.0,0.0,88,0.00,,---,0.00,VWS V15.00,2017-08-21 07:45:00,
2017-08-21 03:51:00,78.6,74.8,30.03,South,173,0.0,0.0,88,0.00,,---,0.00,VWS V15.00,2017-08-21 07:51:00,
2017-08-21 03:56:00,78.5,74.3,30.03,South,173,0.0,0.0,87,0.00,,---,0.00,VWS V15.00,2017-08-21 07:56:00,
2017-08-21 04:01:00,78.5,74.7,30.03,South,173,0.0,0.0,88,0.00,,---,0.00,VWS V15.00,2017-08-21 08:01:00,
2017-08-21 04:06:00,78.3,74.5,30.03,South,173,0.0,0.0,88,0.00,,---,0.00,VWS V15.00,2017-08-21 08:06:00,
2017-08-21 04:11:00,78.2,74.4,30.03,South,173,0.0,0.0,88,0.00,,---,0.00,VWS V15.00,2017-08-21 08:11:00,
2017-08-21 04:16:00,78.2,74.4,30.03,South,173,0.0,0.0,88,0.00,,---,0.00,VWS V15.00,2017-08-21 08:16:00,
2017-08-21 04:21:00,78.1,74.3,30.02,South,173,0.0,0.0,88,0.00,,---,0.00,VWS V15.00,2017-08-21 08:21:00,
2017-08-21 04:26:00,78.1,74.3,30.03,South,173,0.0,1.0,88,0.00,,---,0.00,VWS V15.00,2017-08-21 08:26:00,
2017-08-21 04:31:00,78.2,74.4,30.03,South,173,0.0,0.0,88,0.00,,---,0.00,VWS V15.00,2017-08-21 08:31:00,
2017-08-21 04:36:00,78.1,74.3,30.03,South,173,0.0,0.0,88,0.00,,---,0.00,VWS V15.00,2017-08-21 08:36:00,
2017-08-21 04:41:00,78.0,74.2,30.03,South,173,0.0,0.0,88,0.00,,---,0.00,VWS V15.00,2017-08-21 08:41:00,
2017-08-21 04:47:00,78.0,74.2,30.03,South,173,0.0,0.0,88,0.00,,---,0.00,VWS V15.00,2017-08-21 08:47:00,
2017-08-21 04:52:00,78.1,74.3,30.03,South,173,0.0,1.0,88,0.00,,---,0.00,VWS V15.00,2017-08-21 08:52:00,
2017-08-21 04:57:00,78.1,74.3,30.03,South,173,0.0,1.0,88,0.00,,---,0.00,VWS V15.00,2017-08-21 08:57:00,
2017-08-21 05:02:00,78.0,74.2,30.03,South,173,0.0,0.0,88,0.00,,---,0.00,VWS V15.00,2017-08-21 09:02:00,
2017-08-21 05:07:00,77.9,74.1,30.03,South,173,0.0,0.0,88,0.00,,---,0.00,VWS V15.00,2017-08-21 09:07:00,
2017-08-21 05:12:00,77.8,74.0,30.03,South,173,0.0,0.0,88,0.00,,---,0.00,VWS V15.00,2017-08-21 09:12:00,
2017-08-21 05:17:00,77.9,74.1,30.03,NE,46,0.0,2.0,88,0.00,,---,0.00,VWS V15.00,2017-08-21 09:17:00,
2017-08-21 05:22:00,77.8,74.0,30.03,NE,46,0.0,2.0,88,0.00,,---,0.00,VWS V15.00,2017-08-21 09:22:00,
2017-08-21 05:27:00,77.9,74.1,30.03,NE,46,0.0,2.0,88,0.00,,---,0.00,VWS V15.00,2017-08-21 09:27:00,
2017-08-21 05:32:00,77.8,74.0,30.04,NE,46,0.0,1.0,88,0.00,,---,0.00,VWS V15.00,2017-08-21 09:32:00,
2017-08-21 05:37:00,77.7,73.9,30.04,NE,46,0.0,1.0,88,0.00,,---,0.00,VWS V15.00,2017-08-21 09:37:00,
2017-08-21 05:43:00,77.8,74.0,30.04,NE,46,0.0,1.0,88,0.00,,---,0.00,VWS V15.00,2017-08-21 09:43:00,
2017-08-21 05:48:00,77.8,74.0,30.04,NE,46,0.0,0.0,88,0.00,,---,0.00,VWS V15.00,2017-08-21 09:48:00,
2017-08-21 05:53:00,77.8,74.0,30.04,NE,46,0.0,0.0,88,0.00,,---,0.00,VWS V15.00,2017-08-21 09:53:00,
2017-08-21 05:58:00,77.7,73.9,30.04,NE,46,0.0,0.0,88,0.00,,---,0.00,VWS V15.00,2017-08-21 09:58:00,
2017-08-21 06:03:00,77.6,73.8,30.04,NE,46,0.0,0.0,88,0.00,,---,0.00,VWS V15.00,2017-08-21 10:03:00,
2017-08-21 06:08:00,77.5,73.7,30.04,NE,46,0.0,0.0,88,0.00,,---,0.00,VWS V15.00,2017-08-21 10:08:00,
2017-08-21 06:13:00,77.5,73.7,30.05,NE,46,0.0,0.0,88,0.00,,---,0.00,VWS V15.00,2017-08-21 10:13:00,
2017-08-21 06:18:00,77.5,73.7,30.05,NE,46,0.0,0.0,88,0.00,,---,0.00,VWS V15.00,2017-08-21 10:18:00,
2017-08-21 06:23:00,77.5,74.0,30.05,NE,46,0.0,0.0,89,0.00,,---,0.00,VWS V15.00,2017-08-21 10:23:00,
2017-08-21 06:28:00,77.6,74.1,30.05,NE,46,0.0,0.0,89,0.00,,---,0.00,VWS V15.00,2017-08-21 10:28:00,
2017-08-21 06:33:00,77.5,74.0,30.05,NE,46,0.0,0.0,89,0.00,,---,0.00,VWS V15.00,2017-08-21 10:33:00,
2017-08-21 06:38:00,77.5,74.0,30.05,NE,46,0.0,0.0,89,0.00,,---,0.00,VWS V15.00,2017-08-21 10:38:00,
2017-08-21 06:43:00,77.5,74.0,30.05,NE,46,0.0,0.0,89,0.00,,---,0.00,VWS V15.00,2017-08-21 10:43:00,
2017-08-21 06:49:00,77.5,74.0,30.06,NE,46,0.0,0.0,89,0.00,,---,0.00,VWS V15.00,2017-08-21 10:49:00,
2017-08-21 06:54:00,77.7,74.2,30.06,NE,46,0.0,0.0,89,0.00,,---,0.00,VWS V15.00,2017-08-21 10:54:00,
2017-08-21 06:59:00,77.7,74.2,30.06,NE,46,0.0,0.0,89,0.00,,---,0.00,VWS V15.00,2017-08-21 10:59:00,
2017-08-21 07:04:00,77.7,74.2,30.06,NE,46,0.0,0.0,89,0.00,,---,0.00,VWS V15.00,2017-08-21 11:04:00,
2017-08-21 07:09:00,77.7,74.2,30.06,NE,46,0.0,0.0,89,0.00,,---,0.00,VWS V15.00,2017-08-21 11:09:00,
2017-08-21 07:14:00,77.6,74.1,30.06,NE,46,0.0,0.0,89,0.00,,---,0.00,VWS V15.00,2017-08-21 11:14:00,
2017-08-21 07:19:00,77.7,74.2,30.06,NE,46,0.0,0.0,89,0.00,,---,0.00,VWS V15.00,2017-08-21 11:19:00,
2017-08-21 07:24:00,77.8,74.3,30.07,NE,46,0.0,0.0,89,0.00,,---,0.00,VWS V15.00,2017-08-21 11:24:00,
2017-08-21 07:29:00,77.9,74.4,30.07,NE,46,0.0,0.0,89,0.00,,---,0.00,VWS V15.00,2017-08-21 11:29:00,
2017-08-21 07:34:00,78.2,74.7,30.07,NE,46,0.0,0.0,89,0.00,,---,0.00,VWS V15.00,2017-08-21 11:34:00,
2017-08-21 07:39:00,78.4,74.9,30.07,NE,46,0.0,0.0,89,0.00,,---,0.00,VWS V15.00,2017-08-21 11:39:00,
2017-08-21 07:44:00,78.7,75.2,30.07,NE,46,1.0,3.0,89,0.00,,---,0.00,VWS V15.00,2017-08-21 11:44:00,
2017-08-21 07:49:00,78.9,75.4,30.07,NE,46,1.0,1.0,89,0.00,,---,0.00,VWS V15.00,2017-08-21 11:49:00,
2017-08-21 07:55:00,79.2,75.7,30.07,NE,46,1.0,2.0,89,0.00,,---,0.00,VWS V15.00,2017-08-21 11:55:00,
2017-08-21 08:00:00,79.8,76.3,30.07,NE,46,1.0,2.0,89,0.00,,---,0.00,VWS V15.00,2017-08-21 12:00:00,
2017-08-21 08:05:00,80.5,76.6,30.07,NE,46,2.0,2.0,88,0.00,,---,0.00,VWS V15.00,2017-08-21 12:05:00,
2017-08-21 08:10:00,80.9,77.0,30.07,SE,131,2.0,6.0,88,0.00,,---,0.00,VWS V15.00,2017-08-21 12:10:00,
2017-08-21 08:15:00,81.6,77.4,30.08,East,82,3.0,3.0,87,0.00,,---,0.00,VWS V15.00,2017-08-21 12:15:00,
2017-08-21 08:20:00,82.3,77.3,30.08,East,84,4.0,6.0,85,0.00,,---,0.00,VWS V15.00,2017-08-21 12:20:00,
2017-08-21 08:25:00,83.0,77.7,30.08,East,91,3.0,8.0,84,0.00,,---,0.00,VWS V15.00,2017-08-21 12:25:00,
2017-08-21 08:30:00,83.6,77.5,30.08,East,92,2.0,6.0,82,0.00,,---,0.00,VWS V15.00,2017-08-21 12:30:00,
2017-08-21 08:35:00,84.1,77.6,30.08,East,97,5.0,9.0,81,0.00,,---,0.00,VWS V15.00,2017-08-21 12:35:00,
2017-08-21 08:40:00,84.5,78.0,30.08,ENE,68,3.0,11.0,81,0.00,,---,0.00,VWS V15.00,2017-08-21 12:40:00,
2017-08-21 08:45:00,84.9,78.0,30.09,ENE,59,2.0,4.0,80,0.00,,---,0.00,VWS V15.00,2017-08-21 12:45:00,
2017-08-21 08:50:00,85.4,78.5,30.09,ENE,69,6.0,7.0,80,0.00,,---,0.00,VWS V15.00,2017-08-21 12:50:00,
2017-08-21 08:56:00,85.6,78.3,30.09,East,84,3.0,10.0,79,0.00,,---,0.00,VWS V15.00,2017-08-21 12:56:00,
2017-08-21 09:01:00,85.7,78.4,30.09,ENE,73,7.0,9.0,79,0.00,,---,0.00,VWS V15.00,2017-08-21 13:01:00,
2017-08-21 09:06:00,85.6,78.0,30.09,ENE,65,6.0,11.0,78,0.00,,---,0.00,VWS V15.00,2017-08-21 13:06:00,
2017-08-21 09:11:00,85.6,78.3,30.08,ESE,113,2.0,11.0,79,0.00,,---,0.00,VWS V15.00,2017-08-21 13:11:00,
2017-08-21 09:16:00,86.1,78.4,30.09,SE,145,5.0,6.0,78,0.00,,---,0.00,VWS V15.00,2017-08-21 13:16:00,
2017-08-21 09:21:00,86.5,78.4,30.09,ESE,107,3.0,10.0,77,0.00,,---,0.00,VWS V15.00,2017-08-21 13:21:00,
2017-08-21 09:26:00,86.9,78.4,30.09,ENE,78,2.0,10.0,76,0.00,,---,0.00,VWS V15.00,2017-08-21 13:26:00,
2017-08-21 09:31:00,86.6,78.1,30.09,ESE,108,6.0,10.0,76,0.00,,---,0.00,VWS V15.00,2017-08-21 13:31:00,
2017-08-21 09:36:00,86.6,78.5,30.09,ENE,60,9.0,10.0,77,0.00,,---,0.00,VWS V15.00,2017-08-21 13:36:00,
2017-08-21 09:41:00,86.9,78.8,30.09,ENE,63,7.0,13.0,77,0.00,,---,0.00,VWS V15.00,2017-08-21 13:41:00,
2017-08-21 09:46:00,87.0,78.1,30.09,ESE,117,2.0,10.0,75,0.00,,---,0.00,VWS V15.00,2017-08-21 13:46:00,
2017-08-21 09:51:00,87.4,78.5,30.09,East,80,2.0,10.0,75,0.00,,---,0.00,VWS V15.00,2017-08-21 13:51:00,
2017-08-21 09:57:00,88.0,78.7,30.10,East,98,2.0,10.0,74,0.00,,---,0.00,VWS V15.00,2017-08-21 13:57:00,
2017-08-21 10:02:00,88.0,78.3,30.10,ENE,70,4.0,8.0,73,0.00,,---,0.00,VWS V15.00,2017-08-21 14:02:00,
2017-08-21 10:07:00,87.5,78.2,30.10,East,95,4.0,13.0,74,0.00,,---,0.00,VWS V15.00,2017-08-21 14:07:00,
2017-08-21 10:12:00,87.5,78.2,30.10,SSW,202,5.0,13.0,74,0.00,,---,0.00,VWS V15.00,2017-08-21 14:12:00,
2017-08-21 10:17:00,87.7,77.6,30.10,East,94,4.0,11.0,72,0.00,,---,0.00,VWS V15.00,2017-08-21 14:17:00,
2017-08-21 10:22:00,87.3,77.2,30.10,ENE,67,7.0,11.0,72,0.00,,---,0.00,VWS V15.00,2017-08-21 14:22:00,
2017-08-21 10:27:00,87.3,78.0,30.11,South,185,2.0,11.0,74,0.00,,---,0.00,VWS V15.00,2017-08-21 14:27:00,
2017-08-21 10:32:00,87.5,77.8,30.10,East,88,6.0,8.0,73,0.00,,---,0.00,VWS V15.00,2017-08-21 14:32:00,
2017-08-21 10:37:00,87.6,78.3,30.10,ENE,61,5.0,9.0,74,0.00,,---,0.00,VWS V15.00,2017-08-21 14:37:00,
2017-08-21 10:42:00,88.3,78.1,30.11,ENE,78,6.0,12.0,72,0.00,,---,0.00,VWS V15.00,2017-08-21 14:42:00,
2017-08-21 10:47:00,87.7,78.0,30.11,ESE,123,7.0,11.0,73,0.00,,---,0.00,VWS V15.00,2017-08-21 14:47:00,
2017-08-21 10:53:00,87.6,77.9,30.11,East,86,4.0,11.0,73,0.00,,---,0.00,VWS V15.00,2017-08-21 14:53:00,
2017-08-21 10:58:00,87.6,77.0,30.11,SE,134,4.0,11.0,71,0.00,,---,0.00,VWS V15.00,2017-08-21 14:58:00,